Location: Benátky
(49.9035°N, 14.9338°E)
Time: 12:42:56
(UTC+00:00)

Daily predictions for brighter satellites

Satellite Brightness Start Highest point End
(mag) Time Altitude Azimuth Time Altitude Azimuth Time Altitude Azimuth
USA 267 4.0 17:36:42 10° ENE 17:42:58 52° N 17:49:16 10° W
KORONAS-FOTON 4.4 17:44:30 10° N 17:47:56 35° ENE 17:51:21 10° SE
Cosmos 1743 2.4 17:45:02 10° S 17:48:34 68° E 17:52:08 10° NNE
USA 186 3.1 17:46:36 10° ESE 17:49:12 23° ENE 17:51:49 10° NNE
SPOT 1/Viking Rocket 3.6 17:44:39 10° SSE 17:49:45 63° ENE 17:54:52 10° N
Cosmos 2322 Rocket 3.7 17:46:21 10° WSW 17:51:43 41° NW 17:57:06 10° NNE
Cosmos 2237 Rocket 3.2 17:48:07 10° SSE 17:52:26 23° ESE 17:56:45 10° NE
Helios 1B rocket 3.3 17:49:19 10° S 17:53:04 50° W 17:56:50 10° NNW
SL-08 R/B 3.6 17:49:49 10° NNE 17:54:39 52° E 17:59:26 10° S
ISS -2.2 17:52:35 10° S 17:55:03 19° SE 17:57:33 10° E
CZ-4B R/B 3.2 17:51:55 10° SE 17:55:36 43° ENE 17:59:29 10° N
Cosmos 2219 Rocket 2.5 17:50:59 10° SW 17:56:39 74° WNW 18:02:22 10° NNE
CSL-04 Rocket 4.3 17:52:04 10° SE 17:56:53 35° ENE 18:01:40 10° N
Meteor 1-14 Rocket 4.5 17:55:35 10° SSE 18:00:48 45° E 18:06:03 10° NNE
NOSS 2-1 (E) 3.7 17:59:05 10° NW 18:02:50 76° SW 18:07:59 10° SE
Cosmos 1328 Rocket 3.5 17:59:20 10° N 18:03:38 72° ENE 18:07:55 10° SSE
Cosmos 1356 Rocket 3.7 18:02:22 10° N 18:06:26 47° ENE 18:10:27 10° SSE
Cosmos 1674 2.3 18:03:35 10° N 18:06:57 87° E 18:10:15 10° S
Lacrosse 4 Rocket 2.9 18:03:43 10° NW 18:07:46 38° WSW 18:11:45 10° S
NOSS 2-1 (D) 3.9 18:06:48 10° NW 18:10:30 63° SW 18:15:34 10° SSE
BREEZE-M DEB (TANK) 3.2 18:08:36 10° W 18:11:10 88° S 18:16:40 10° E
SJ-6B 2.6 18:07:58 10° SSE 18:11:35 87° WSW 18:15:12 10° NNW
SeaSat 1 3.6 18:08:16 10° NNE 18:13:01 48° NW 18:17:42 10° SW
Iridium 4 Rocket 3.1 18:09:45 10° N 18:13:56 79° W 18:18:05 10° S
Meteor 1-4 Rocket 1.6 18:11:48 10° N 18:14:28 80° E 18:17:07 10° SSE
CARTOSAT-1 3.8 18:10:31 10° SE 18:14:37 49° ENE 18:18:44 10° N
Cosmos 2333 Rocket 3.9 18:09:25 10° WSW 18:14:46 38° NW 18:20:08 10° NNE
Cosmos 1340 3.9 18:12:58 10° SW 18:16:04 40° WNW 18:19:10 10° N
ATLAS CENTAUR R/B 2.4 18:13:38 10° SSE 18:16:12 19° ESE 18:18:53 10° ENE
In-Cosmos 22 4.5 18:12:49 10° N 18:18:23 49° ENE 18:23:46 10° SE
Cosmos 2369 Rocket 3.9 18:15:25 10° N 18:19:32 20° NE 18:23:25 11° E
ARGOS Delta rocket 3.9 18:16:29 10° SSE 18:21:31 83° ENE 18:26:19 10° N
Cosmos 1980 4.1 18:16:26 10° S 18:21:41 40° ESE 18:26:58 10° NE
Cosmos 1733 3.5 18:22:02 10° SSE 18:25:10 34° E 18:28:18 10° NNE
Cosmos 1891 Rocket 4.4 18:20:02 10° S 18:26:03 69° E 18:32:15 10° NNE
Cosmos 1943 Rocket 2.2 18:22:10 10° NNW 18:27:41 66° ENE 18:32:34 13° SE
NOSS 0 Rocket 4.0 18:21:43 10° SSW 18:27:50 60° ESE 18:33:59 10° NE
USA 276 2.4 18:26:13 10° W 18:29:00 45° SSW 18:30:24 22° SE
Nadezhda 4 Rocket 4.1 18:23:58 10° N 18:30:08 56° ENE 18:36:19 10° SSE
ACS3 Solar Sail 2.2 18:24:34 10° SE 18:30:41 49° ENE 18:36:49 10° N
Cosmos 1400 Rocket 4.0 18:27:28 10° NNW 18:31:06 41° W 18:34:40 10° SSW
CSL-04 Debris 4.2 18:27:11 10° SSE 18:32:37 69° ENE 18:38:05 10° N
Sich 1 4.0 18:30:57 17° SE 18:33:07 25° E 18:36:40 10° NNE
Cosmos 2322 4.0 18:27:31 10° SW 18:33:09 70° WNW 18:38:49 10° NNE
BlueWalker 3 3.7 18:31:44 10° W 18:34:48 24° SW 18:37:52 10° SSE
Cosmos 1570 Rocket 4.3 18:31:04 10° S 18:36:00 42° ESE 18:40:57 10° NE
ERS-1 Rocket 4.3 18:34:08 17° E 18:36:19 22° ENE 18:40:08 10° N
Cosmos 1726 4.0 18:34:15 10° SW 18:36:37 24° WNW 18:38:59 10° NNW
Terra 3.4 18:35:11 15° E 18:36:47 18° ENE 18:39:57 10° NNE
Cosmos 1513 Rocket 4.4 18:35:54 10° S 18:41:57 82° E 18:48:06 10° N
Cosmos 1315 Rocket 2.9 18:43:08 10° N 18:47:04 54° ENE 18:49:14 24° SE
Cosmos 1805 3.9 18:47:20 28° ESE 18:47:40 29° E 18:50:52 10° NNE
Cosmos 1464 Rocket 4.0 18:43:33 10° S 18:49:50 73° E 18:56:13 10° NNE
Cosmos 1125 Rocket 3.4 18:46:01 10° NNW 18:51:15 90° SSE 18:55:24 16° SSE
Cosmos 1842 4.3 18:48:36 10° NNW 18:52:03 42° W 18:55:28 10° SSW
ATLAS 2AS CENTAUR R/B 4.4 18:46:21 10° WNW 18:52:23 28° NNW 18:58:15 10° NE
SL-16 R/B 3.4 18:53:32 21° E 18:53:32 21° E 18:57:01 10° NE
Cosmos 1536 2.6 18:50:48 10° S 18:54:37 88° WNW 18:58:28 10° N
USA 59 Rocket 1.7 18:51:09 10° WNW 18:54:43 31° SW 18:59:25 10° S
Okean 3 Rocket 3.6 18:50:37 10° S 18:55:05 86° W 18:59:34 10° N
Cosmos 1707 3.5 18:52:27 10° NNW 18:55:53 46° W 18:59:17 10° SSW
Cosmos 1515 Rocket 3.7 18:51:51 10° NNW 18:56:11 73° W 19:00:31 10° S
COSMOS 2428 3.4 18:51:24 10° SW 18:57:01 59° NW 19:02:43 10° NNE
Cosmos 1656 Rocket 4.5 18:52:15 10° NNW 18:57:28 36° NE 18:59:58 25° E
Okean O Rocket 1.5 18:57:42 20° SSE 19:00:46 81° ENE 19:05:12 10° NNW
SL-14 R/B 3.5 19:01:07 10° N 19:04:48 46° ENE 19:05:27 41° ESE
Cosmos 2278 Rocket 3.1 19:01:48 10° NW 19:07:13 48° WSW 19:12:37 10° S
Meteor 1-13 Rocket 4.4 19:03:37 10° NNW 19:09:31 77° W 19:14:59 11° S
USA 306 3.0 19:06:34 10° W 19:09:48 54° NNW 19:11:32 27° NE
CZ-4 R/B 3.2 19:06:37 10° SSW 19:09:58 29° W 19:13:24 10° NNW
PSLV R/B 3.4 19:09:57 48° SE 19:10:50 72° ENE 19:14:21 10° N
Meteor 2-9 Rocket 4.0 19:05:45 10° S 19:11:03 75° E 19:16:32 10° NNE
Cosmos 2034 Rocket 3.9 19:05:56 10° S 19:12:06 73° E 19:18:15 10° NNE
CZ-4B R/B 3.7 19:07:51 10° S 19:13:13 57° WSW 19:18:32 10° NNW
Cosmos 1500 Rocket 3.4 19:10:44 18° S 19:13:51 69° E 19:18:11 10° NNE
Resurs 01 Rocket 2.7 19:11:12 10° S 19:15:25 43° W 19:19:39 10° NNW
NOSS 3-3 (C) 3.8 19:11:53 10° SSW 19:17:06 53° ESE 19:23:14 10° NE
MetOp-B 4.1 19:14:53 32° SE 19:17:18 64° ENE 19:22:38 10° N
Cosmos 2228 Rocket 3.8 19:13:16 10° N 19:17:32 37° ENE 19:17:54 36° E
Meteor 2-10 4.3 19:12:23 10° SSW 19:18:00 80° WNW 19:23:46 10° N
Meteor 1-23 Rocket 4.1 19:12:47 10° N 19:18:27 80° ENE 19:21:41 27° SSE
Cosmos 1743 Rocket 3.5 19:19:19 41° SSE 19:20:34 61° E 19:24:52 10° NNE
CRYOSAT 2 4.5 19:15:45 10° NNE 19:20:34 53° E 19:21:56 40° SE
USA 186 4.0 19:18:08 10° SSW 19:20:50 24° W 19:23:33 10° NW
SPOT 3 Rocket 4.5 19:20:19 29° E 19:21:08 30° ENE 19:25:35 10° N
SPOT 5 2.6 19:22:14 41° SSE 19:23:47 75° ENE 19:28:14 10° N
Okean-O 2.5 19:23:04 42° SSE 19:24:33 83° ENE 19:28:59 10° NNW
USA 267 3.8 19:21:01 20° ENE 19:25:25 53° N 19:31:44 10° WNW
Cosmos 2208 Rocket 3.9 19:22:01 10° SSW 19:27:17 81° ESE 19:32:40 10° NNE
Cosmos 1408 Rocket 3.9 19:24:31 10° SSW 19:28:52 66° WNW 19:33:17 10° N
NOSS 3-3 (A) 3.6 19:25:53 10° SSW 19:31:15 68° SE 19:37:36 10° NE
ISS -3.2 19:28:07 10° WSW 19:30:43 50° SW 19:30:43 50° SW
MOS 1 4.3 19:31:48 29° S 19:34:51 83° WSW 19:40:35 10° NNW
Cosmos 2237 Rocket 2.5 19:30:22 10° SW 19:35:58 67° WNW 19:41:36 10° NNE
Cosmos 2279 Rocket 4.3 19:35:28 40° ESE 19:36:19 42° E 19:42:06 10° NNE
Aureole 3 Rocket 3.7 19:31:13 10° S 19:38:00 84° W 19:42:49 10° N
Cosmos 1607 4.1 19:32:51 10° SSW 19:39:00 49° ESE 19:45:11 10° NE
Cosmos 2297 3.7 19:40:19 10° NNW 19:45:57 66° ENE 19:47:04 53° ESE
MOS 1 Rocket 3.4 19:45:39 49° SSE 19:47:04 88° WSW 19:52:25 10° NNW
Meteor 1-11 Rocket 4.5 19:41:42 10° SSW 19:47:10 52° WNW 19:52:36 10° N
Spot 2 Rocket 3.5 19:50:59 59° E 19:51:19 61° ENE 19:56:18 10° N
Cosmos 158 Rocket 4.5 19:47:59 10° SW 19:52:45 54° WNW 19:57:33 10° NNE
ATLAS CENTAUR R/B 1.8 19:49:43 10° WSW 19:53:14 51° NW 19:54:53 28° NNE
NOSS 3-4 (A) 3.8 19:48:05 10° NW 19:54:47 76° NE 19:57:11 47° ESE
NOSS 3-4 (C) 3.8 19:48:12 10° NW 19:54:53 76° NE 19:57:17 47° ESE
Cosmos 1805 Rocket 4.2 19:52:47 26° SW 19:55:02 54° WNW 19:59:19 10° N
Cosmos 1633 Rocket 4.3 20:06:11 32° NNE 20:06:11 32° NNE 20:08:40 10° NNE
Cosmos 2369 Rocket 2.1 19:58:50 10° NNW 20:04:35 73° ENE 20:05:11 67° ESE
Cosmos 1862 Rocket 3.7 20:02:37 10° N 20:06:32 69° N 20:06:32 69° N
Sich 1 4.4 20:07:34 17° SW 20:10:20 36° WNW 20:14:21 10° N
Cosmos 1943 Rocket 4.1 20:06:41 10° NW 20:10:55 23° WSW 20:14:05 14° SW
Cosmos 1707 Rocket 3.8 20:07:00 10° NNW 20:11:05 70° NW 20:11:05 70° NW
Terra 1.8 20:13:52 74° W 20:13:52 74° W 20:18:35 10° NNW
ERS-1 Rocket 3.1 20:14:03 59° SW 20:14:37 64° WSW 20:19:39 10° NNW
ACS3 Solar Sail 3.2 20:09:35 12° SSW 20:14:54 36° W 20:20:46 10° NNW
Cosmos 1666 Rocket 4.4 20:18:28 44° N 20:18:28 44° N 20:21:28 10° N
Cosmos 1975 3.9 20:18:59 42° NW 20:18:59 42° NW 20:22:15 10° N
Ariane Rocket 3.0 20:24:21 80° NW 20:24:21 80° NW 20:29:12 10° NNW
Cosmos 2266 Rocket 4.0 20:18:47 10° N 20:25:01 63° ENE 20:25:07 63° E
SL-16 R/B 2.3 20:35:16 57° WSW 20:36:21 72° WNW 20:42:03 10° NNE
Okean O Rocket 4.3 20:35:28 10° WSW 20:37:35 13° W 20:39:43 10° WNW
Cosmos 1656 Rocket 4.3 20:35:48 10° NW 20:41:11 47° WSW 20:41:19 47° WSW
ATLAS 2AS CENTAUR R/B 4.2 20:39:28 10° NW 20:45:26 29° NNE 20:49:08 18° ENE
SL-08 ROCKET BODY 4.4 20:40:48 10° N 20:46:46 83° N 20:46:46 83° N
Okean 1-7 4.5 20:46:00 10° NNW 20:48:39 35° NNW 20:48:39 35° NNW
Cosmos 2263 4.5 20:46:49 10° NNW 20:51:55 64° WNW 20:51:55 64° WNW
SPOT 3 Rocket 4.4 21:00:55 44° WNW 21:00:55 44° WNW 21:05:17 10° NNW
USA 267 3.1 21:08:22 85° NW 21:08:22 85° NW 21:14:45 10° WNW
Cosmos 1655 Rocket 4.1 21:04:53 10° N 21:10:37 73° N 21:10:37 73° N
Cosmos 2344 4.3 21:06:45 10° NW 21:14:26 55° NE 21:17:17 42° E
Meteor 2-5 Rocket 4.4 21:19:56 10° N 21:24:27 52° N 21:24:27 52° N
Meteor 1-24 Rocket 4.4 21:20:53 10° N 21:25:23 52° N 21:25:23 52° N
ATLAS CENTAUR R/B 4.3 21:29:24 10° NW 21:35:08 - NNE 21:29:51 11° NW
Cosmos 2369 Rocket 4.1 21:43:47 10° NW 21:46:58 20° W 21:46:58 20° W
Cosmos 1980 Rocket 4.1 22:06:15 10° N 22:10:31 22° NE 22:10:31 22° NE
USA 215 4.2 22:08:57 10° ENE 22:12:41 37° NE 22:12:41 37° NE
ATLAS 2AS CENTAUR R/B 3.2 22:30:52 10° NW 22:36:31 53° N 22:36:31 53° N
Cosmos 1697 Rocket 4.2 22:49:25 10° NNW 22:52:28 33° NNW 22:52:28 33° NNW
Cosmos 2082 Rocket 4.3 23:25:38 18° ENE 23:25:38 18° ENE 23:27:35 10° NE
Cosmos 2344 4.4 23:21:00 10° NW 23:27:14 48° W 23:27:14 48° W
SL-16 R/B 4.1 23:31:19 10° NNW 23:35:57 25° NE 23:37:43 21° ENE
CZ-2C R/B 4.2 23:46:19 30° NE 23:46:19 30° NE 23:49:49 10° N
Resurs 1-4 Rocket 4.4 23:42:30 10° NE 23:44:45 15° ENE 23:44:45 15° ENE
